Location: Mannheim
(49.4880°N, 8.4650°E)
Time: 04:46:18
(UTC+02:00)

ISS - Pass Details

Date: 15 September 2018
Orbit: 403 x 408 km, 51.6° (Epoch: 25 September)

Event Time Altitude Azimuth Distance (km) Brightness Sun altitude
Exits shadow 04:59:33 69° 151° (SSE) 437 -3.8 -19.6°
Drops below altitude 10° 05:02:33 10° 116° (ESE) 1,459 -0.6 -19.2°
Sets 05:04:37 0° 115° (ESE) 2,316 0.5 -18.9°
